Home > Weather > Aurora > Past weeks

Flag for USA Past Weather in Aurora, Illinois, USA — Yesterday and Last 2 Weeks

Now
73 °F

Fog.


Feels Like: 71 °F
Forecast: 70 / 83 °F
Wind: 3 mph from Southeast

Location: Dupage Airport

Current Time: Aug 30, 2016 at 12:16:10 AM

Latest Report: Aug 29, 2016 at 10:52 PM


Visibility: 5 mi

Pressure: 30.16 "Hg

Humidity: 90%

Dew Point: 70 °F

Location of AuroraLocation

Past Weather in Aurora — Graph

°F

Aurora Temperature Yesterday

Maximum temperature yesterday: 86 °F (at 1:52 PM)
Minimum temperature yesterday: 66 °F (at 3:52 AM)
Average temperature yesterday: 75 °F

High & Low Weather Summary for the Past Weeks

 TemperatureHumidityPressure
High86 °F (Aug 18, 3:52 PM)94% (Aug 29, 7:52 PM)30.24 "Hg (Aug 29, 7:52 PM)
Low52 °F (Aug 22, 5:52 AM)44% (Aug 21, 5:52 PM)29.59 "Hg (Aug 20, 1:52 PM)
Average73 °F76%30.02 "Hg
* Reported Aug 14 10:52 PM — Aug 29 10:52 PM, Aurora, Weather by CustomWeather, © 2016

Note: Actual official high and low records may vary slightly from our data, if they occured in-between our weather recording intervals... More about our weather records

Advertising

Aurora Weather History for the Previous 24 Hours

Scroll right to see more
 ConditionsComfort  
Time TempWeatherWind HumidityBarometerVisibility
10:52 PM
Mon, Aug 29
73 °FFog.3 mph90%30.16 "Hg5 mi
9:52 PM72 °FFog.No wind91%30.17 "Hg4 mi
9:01 PM72 °FFog.7 mph93%30.17 "Hg6 mi
7:52 PM73 °FLight rain. Sunny.3 mph94%30.15 "Hg7 mi
6:52 PM74 °FLight rain. Fog.No wind88%30.17 "Hg6 mi
5:52 PM76 °FPassing clouds.3 mph85%30.18 "Hg10 mi
4:52 PM75 °FPassing clouds.3 mph88%30.17 "Hg10 mi
3:52 PM73 °FThunderstorms. Mostly cloudy.8 mph84%30.18 "Hg9 mi
2:52 PM83 °FThundershowers. Passing clouds.7 mph63%30.17 "Hg10 mi
1:52 PM86 °FPassing clouds.5 mph61%30.20 "Hg10 mi
12:52 PM85 °FScattered clouds.8 mph63%30.22 "Hg10 mi
11:52 AM84 °FSunny.6 mph63%30.23 "Hg10 mi
10:52 AM83 °FSunny.6 mph63%30.24 "Hg10 mi
9:52 AM79 °FPartly sunny.7 mph74%30.23 "Hg10 mi
8:52 AM77 °FSunny.9 mph77%30.22 "Hg10 mi
7:52 AM73 °FSunny.6 mph88%30.22 "Hg10 mi
6:52 AM70 °FClear.5 mph90%30.22 "Hg9 mi
5:52 AM68 °FClear.5 mph93%30.19 "Hg9 mi
4:52 AM68 °FPassing clouds.3 mph93%30.20 "Hg10 mi
3:52 AM66 °FClear.5 mph93%30.19 "Hg10 mi
2:52 AM68 °FClear.5 mph90%30.18 "Hg8 mi
1:52 AM69 °FClear.3 mph90%30.19 "Hg10 mi
12:52 AM70 °FClear.No wind90%30.20 "Hg10 mi
Weather by CustomWeather, © 2016

See weather overviewHow to use our weather pages